Skip Page Navigation
NASA JPL Caltech
NASA Logo - Jet Propulsion Laboratory + View the NASA Portal
+ Center for Near-Earth Object Studies
JPL Home Earth Solar System Stars & Galaxies Technology
JPL Solar System Dynamics
BODIES ORBITS EPHEMERIDES TOOLS PHYSICAL DATA DISCOVERY FAQ SITE MAP
IMPORTANT: The SSD Announcement email list is now available. Major changes are coming in the near future, including possible hostname and/or URL changes. To be notified of such changes, subscribe to this email list.

Please visit this page for more details.


JPL Small-Body Database Browser
Search: [ help ]  
183566 (2003 NQ2)
Classification: Main-belt Asteroid          SPK-ID: 2183566
Ephemeris | Orbit Diagram | Orbital Elements | Mission Design | Physical Parameters | Discovery Circumstances | Close-Approach Data ]

[ show orbit diagram ]
Orbital Elements at Epoch 2458600.5 (2019-Apr-27.0) TDB
Reference: JPL 20 (heliocentric ecliptic J2000)
 Element Value Uncertainty (1-sigma)   Units 
e .2458441655318435 5.1803e-08  
a 3.115922372643063 3.6981e-08 au
q 2.349891037078627 1.6729e-07 au
i 20.62464689534372 7.8676e-06 deg
node 225.3390343728923 1.6249e-05 deg
peri 80.11252258152739 2.3409e-05 deg
M 316.0568878872716 2.0603e-05 deg
tp 2458845.726094392236
(2019-Dec-28.22609439)
0.00011702 TDB
period 2008.992757607478
5.50
3.5766e-05
9.792e-08
d
yr
n .1791942746616599 3.1902e-09 deg/d
Q 3.881953708207499 4.6073e-08 au
  Orbit Determination Parameters
   # obs. used (total)      376  
   data-arc span      8041 days (22.02 yr)  
   first obs. used      1997-05-03  
   last obs. used      2019-05-09  
   planetary ephem.      DE431  
   SB-pert. ephem.      SB431-N16  
   condition code      0  
   norm. resid. RMS      .61251  
   source      ORB  
   producer      Otto Matic  
   solution date      2019-May-30 07:51:02  

Additional Information
 Earth MOID = 1.43751 au 
 Jupiter MOID = 1.74241 au 
 T_jup = 3.074 
[ show covariance matrix ]

Ephemeris | Orbit Diagram | Orbital Elements | Mission Design | Physical Parameters | Discovery Circumstances | Close-Approach Data ]

Physical Parameter Table
Parameter Symbol Value Units Sigma Reference Notes
absolute magnitude H 14.4   n/a MPO433201  

183566 (2003 NQ2)          Discovered 2003-Jul-04 by NEAT at Haleakala
Reference: 20080420/Numbers.arcLast Updated: 2008-04-23

[ show close-approach data ]
Alternate Designations
 2003 NQ2 = 1997 JT17 = 2004 VK92 
Ephemeris | Orbit Diagram | Orbital Elements | Mission Design | Physical Parameters | Discovery Circumstances | Close-Approach Data ]
ABOUT SSD CREDITS/AWARDS PRIVACY/COPYRIGHT GLOSSARY LINKS
FirstGov
(server date/time)  
NASA Home Page
Site Manager:   Ryan S. Park
Webmaster  Alan B. Chamberlin